DW6344 Weather Reports


Display with metric or nautical units.
time (UTC)temp
F
wind
direction
speed
MPH
gust
MPH
rain 1hr
in
rain 24hr
in
rain mn
in
humidity
%
barometer
mb
20260504185854 79 67 0.0 2.0 0.00 0.00 0.00 24 1010.9
20260504185401 79 67 1.0 3.0 0.00 0.00 0.00 25 1010.9
20260504184837 78 118 1.0 3.0 0.00 0.00 0.00 27 1011.2
20260504184403 77 265 0.0 3.0 0.00 0.00 0.00 26 1011.1
20260504183844 78 254 1.0 6.0 0.00 0.00 0.00 24 1011.1
20260504183344 79 346 1.0 6.0 0.00 0.00 0.00 24 1011.1
20260504182835 79 52 1.0 4.0 0.00 0.00 0.00 26 1011.1
20260504182400 79 323 1.0 4.0 0.00 0.00 0.00 26 1011.2
20260504181850 79 40 1.0 3.0 0.00 0.00 0.00 29 1011.2
20260504181347 78 5 2.0 3.0 0.00 0.00 0.00 28 1011.2
20260504180856 78 266 1.0 3.0 0.00 0.00 0.00 28 1011.3
20260504180358 78 249 1.0 3.0 0.00 0.00 0.00 28 1011.4
20260504175836 77 56 0.0 3.0 0.00 0.00 0.00 28 1011.4
20260504175334 77 61 1.0 4.0 0.00 0.00 0.00 29 1011.4
20260504174858 77 46 1.0 4.0 0.00 0.00 0.00 27 1011.4
20260504174327 77 277 1.0 3.0 0.00 0.00 0.00 26 1011.6
20260504173836 77 46 1.0 3.0 0.00 0.00 0.00 27 1011.7
20260504173336 77 59 0.0 8.0 0.00 0.00 0.00 26 1011.6
20260504172902 78 187 1.0 8.0 0.00 0.00 0.00 25 1011.7
20260504172356 79 18 2.0 4.0 0.00 0.00 0.00 26 1011.8
20260504171900 78 140 1.0 3.0 0.00 0.00 0.00 26 1011.8
20260504171339 78 323 1.0 3.0 0.00 0.00 0.00 26 1011.9
20260504170858 77 30 1.0 3.0 0.00 0.00 0.00 28 1012.0
20260504170334 77 297 1.0 3.0 0.00 0.00 0.00 26 1012.1
20260504160336 75 19 0.0 2.0 0.00 0.00 0.00 30 1012.8
20260504150836 72 48 0.0 3.0 0.00 0.00 0.00 38 1013.3
20260504150332 72 23 1.0 3.0 0.00 0.00 0.00 38 1013.3
20260504140829 67 38 0.0 3.0 0.00 0.00 0.00 47 1013.4
20260504140416 66 355 1.0 3.0 0.00 0.00 0.00 47 1013.5
20260504130344 61 290 1.0 4.0 0.00 0.00 0.00 54 1014.0
20260504110350 53 198 0.0 0.0 0.00 0.00 0.00 68 1014.2
20260504100342 52 36 0.0 4.0 0.00 0.00 0.00 68 1013.9
20260504081846 52 36 0.0 2.0 0.00 0.00 0.00 70 1014.6
20260504081340 52 315 0.0 2.0 0.00 0.00 0.00 70 1014.5
20260504080847 52 50 0.0 2.0 0.00 0.00 0.00 71 1014.5
20260504080351 52 50 0.0 2.0 0.00 0.00 0.00 72 1014.6
20260504070344 50 32 0.0 0.0 0.00 0.00 0.00 74 1015.0
20260504050352 48 110 0.0 1.0 0.00 0.00 0.00 79 1014.9
20260504045850 47 111 0.0 1.0 0.00 0.00 0.00 79 1014.9
20260504045358 47 110 0.0 1.0 0.00 0.00 0.00 79 1014.8
20260504044834 46 111 0.0 1.0 0.00 0.00 0.00 80 1014.8
20260504044330 46 110 0.0 2.0 0.00 0.00 0.00 80 1014.7
20260504043845 45 114 0.0 2.0 0.00 0.00 0.00 80 1014.7
20260504043356 45 140 0.0 0.0 0.00 0.00 0.00 80 1014.8
20260504042837 44 140 0.0 0.0 0.00 0.00 0.00 80 1014.8
20260504042403 44 140 0.0 0.0 0.00 0.00 0.00 80 1014.8
20260504041904 44 140 0.0 0.0 0.00 0.00 0.00 80 1014.9
20260504041341 44 140 0.0 0.0 0.00 0.00 0.00 79 1014.9
20260504040901 44 140 0.0 0.0 0.00 0.00 0.00 79 1014.8
20260504040349 44 140 0.0 0.0 0.00 0.00 0.00 79 1014.8
20260504035903 44 140 0.0 0.0 0.00 0.00 0.00 78 1014.8
20260504035407 44 140 0.0 0.0 0.00 0.00 0.00 78 1014.7
20260504034904 44 140 0.0 0.0 0.00 0.00 0.00 78 1014.7
20260504034351 44 140 0.0 0.0 0.00 0.00 0.00 77 1014.6
20260504033919 44 140 0.0 0.0 0.00 0.00 0.00 77 1014.6
20260504033353 44 140 0.0 0.0 0.00 0.00 0.00 77 1014.5
20260504032855 44 140 0.0 0.0 0.00 0.00 0.00 76 1014.5
20260504032337 44 140 0.0 0.0 0.00 0.00 0.00 76 1014.5
20260504031838 44 140 0.0 0.0 0.00 0.00 0.00 75 1014.5
20260504031351 44 140 0.0 0.0 0.00 0.00 0.00 75 1014.6
20260504030901 44 140 0.0 0.0 0.00 0.00 0.00 75 1014.5
20260504030417 45 140 0.0 0.0 0.00 0.00 0.00 74 1014.5
20260504025836 45 140 0.0 0.0 0.00 0.00 0.00 74 1014.5
20260504025402 45 140 0.0 0.0 0.00 0.00 0.00 73 1014.5
20260504024855 45 140 0.0 0.0 0.00 0.00 0.00 72 1014.4
20260504024341 45 140 0.0 0.0 0.00 0.00 0.00 72 1014.5
20260504023838 45 140 0.0 0.0 0.00 0.00 0.00 71 1014.4
20260504023353 45 140 0.0 0.0 0.00 0.00 0.00 71 1014.4
20260504022854 46 140 0.0 0.0 0.00 0.00 0.00 70 1014.5
20260504022354 46 140 0.0 0.0 0.00 0.00 0.00 69 1014.5
20260504021836 46 140 0.0 0.0 0.00 0.00 0.00 69 1014.5
20260504021350 46 140 0.0 0.0 0.00 0.00 0.00 68 1014.5
20260504020905 47 140 0.0 0.0 0.00 0.00 0.00 68 1014.5
20260504020331 47 140 0.0 0.0 0.00 0.00 0.00 67 1014.5
20260504015844 47 140 0.0 0.0 0.00 0.00 0.00 67 1014.5
20260504015330 47 140 0.0 0.0 0.00 0.00 0.00 65 1014.5
20260504014835 47 140 0.0 0.0 0.00 0.00 0.00 65 1014.5
20260504014329 48 140 0.0 0.0 0.00 0.00 0.00 65 1014.4
20260504013901 48 140 0.0 0.0 0.00 0.00 0.00 64 1014.5
20260504013349 48 140 0.0 0.0 0.00 0.00 0.00 63 1014.5
20260504012832 49 140 0.0 0.0 0.00 0.00 0.00 63 1014.4
20260504012340 49 140 0.0 0.0 0.00 0.00 0.00 62 1014.3
20260504011839 49 140 0.0 0.0 0.00 0.00 0.00 61 1014.3
20260504011345 50 140 0.0 0.0 0.00 0.00 0.00 60 1014.2
20260504010839 50 140 0.0 0.0 0.00 0.00 0.00 59 1014.0
20260504010341 51 140 0.0 0.0 0.00 0.00 0.00 58 1014.1
20260504005847 51 140 0.0 0.0 0.00 0.00 0.00 58 1014.0
20260504005326 51 140 0.0 0.0 0.00 0.00 0.00 57 1013.9
20260504004841 52 140 0.0 0.0 0.00 0.00 0.00 56 1013.9
20260504004352 52 140 0.0 0.0 0.00 0.00 0.00 55 1013.9
20260504003831 53 140 0.0 0.0 0.00 0.00 0.00 53 1013.8
20260504003332 53 140 0.0 0.0 0.00 0.00 0.00 52 1013.7
20260504002849 54 140 0.0 0.0 0.00 0.00 0.00 51 1013.8
20260504002337 54 140 0.0 0.0 0.00 0.00 0.00 49 1013.7
20260504001836 55 140 0.0 0.0 0.00 0.00 0.00 48 1013.6
20260504001347 55 140 0.0 0.0 0.00 0.00 0.00 47 1013.5
20260504000851 56 140 0.0 0.0 0.00 0.00 0.00 46 1013.5
20260504000353 57 140 0.0 0.0 0.00 0.00 0.00 44 1013.4
20260503235835 57 140 0.0 0.0 0.00 0.00 0.00 41 1013.4
20260503235328 58 140 0.0 0.0 0.00 0.00 0.00 40 1013.3
20260503234833 59 140 0.0 0.0 0.00 0.00 0.00 38 1013.3
20260503234329 59 125 0.0 0.0 0.00 0.00 0.00 38 1013.3
20260503233844 60 119 0.0 0.0 0.00 0.00 0.00 35 1013.3
20260503233405 60 120 0.0 1.0 0.00 0.00 0.00 33 1013.3
20260503232835 61 120 0.0 1.0 0.00 0.00 0.00 33 1013.3
20260503232410 61 228 0.0 0.0 0.00 0.00 0.00 32 1013.2
20260503231845 61 227 0.0 0.0 0.00 0.00 0.00 31 1013.2
20260503231406 62 227 0.0 2.0 0.00 0.00 0.00 30 1013.2
20260503230842 62 227 0.0 2.0 0.00 0.00 0.00 28 1013.2
20260503230415 62 228 0.0 2.0 0.00 0.00 0.00 29 1013.1
20260503225828 62 161 0.0 1.0 0.00 0.00 0.00 32 1013.2
20260503225336 63 162 0.0 2.0 0.00 0.00 0.00 30 1013.2
20260503224848 63 162 0.0 2.0 0.00 0.00 0.00 29 1013.2
20260503224404 63 161 0.0 2.0 0.00 0.00 0.00 28 1013.2
20260503223838 63 161 0.0 2.0 0.00 0.00 0.00 27 1013.3
20260503223349 63 180 1.0 2.0 0.00 0.00 0.00 28 1013.3
20260503222856 63 182 1.0 2.0 0.00 0.00 0.00 28 1013.2
20260503222357 63 30 0.0 2.0 0.00 0.00 0.00 29 1013.3
20260503221844 64 30 0.0 2.0 0.00 0.00 0.00 30 1013.2
20260503221353 64 30 0.0 2.0 0.00 0.00 0.00 29 1013.2
20260503220858 64 360 1.0 3.0 0.00 0.00 0.00 29 1013.2
20260503220337 64 15 1.0 3.0 0.00 0.00 0.00 27 1013.2
20260503215831 64 179 1.0 4.0 0.00 0.00 0.00 27 1013.3
20260503215351 64 30 1.0 3.0 0.00 0.00 0.00 28 1013.1
20260503214842 64 66 1.0 2.0 0.00 0.00 0.00 29 1013.1
20260503214337 64 175 1.0 2.0 0.00 0.00 0.00 28 1013.0
20260503213909 64 87 0.0 4.0 0.00 0.00 0.00 29 1013.1
20260503213345 64 360 2.0 4.0 0.00 0.00 0.00 28 1013.2
20260503212840 64 360 1.0 3.0 0.00 0.00 0.00 28 1013.1
20260503212336 64 9 1.0 3.0 0.00 0.00 0.00 29 1013.0
20260503211912 64 19 0.0 4.0 0.00 0.00 0.00 27 1013.1
20260503211340 64 215 2.0 4.0 0.00 0.00 0.00 27 1013.1
20260503210841 64 302 1.0 4.0 0.00 0.00 0.00 25 1013.1
20260503210341 65 226 1.0 4.0 0.00 0.00 0.00 26 1013.0
20260503205858 66 244 2.0 4.0 0.00 0.00 0.00 24 1013.0
20260503205356 66 267 1.0 2.0 0.00 0.00 0.00 26 1013.1
20260503204854 66 45 0.0 3.0 0.00 0.00 0.00 25 1013.1
20260503204335 66 71 1.0 5.0 0.00 0.00 0.00 25 1013.1
20260503203850 67 69 2.0 5.0 0.00 0.00 0.00 24 1013.1
20260503203354 67 360 2.0 4.0 0.00 0.00 0.00 25 1013.0
20260503202857 67 10 1.0 4.0 0.00 0.00 0.00 24 1013.0
20260503202335 68 168 1.0 4.0 0.00 0.00 0.00 24 1013.1
20260503201904 68 256 1.0 4.0 0.00 0.00 0.00 24 1013.1
20260503201351 68 54 1.0 2.0 0.00 0.00 0.00 24 1013.1
20260503200827 67 218 1.0 4.0 0.00 0.00 0.00 23 1013.2
20260503200405 67 360 2.0 4.0 0.00 0.00 0.00 24 1013.4
20260503195829 67 213 2.0 4.0 0.00 0.00 0.00 25 1013.5
20260503195330 67 60 1.0 6.0 0.00 0.00 0.00 25 1013.5
20260503194849 66 331 1.0 6.0 0.00 0.00 0.00 24 1013.6
20260503194405 66 30 1.0 4.0 0.00 0.00 0.00 24 1013.7
20260503193837 67 40 1.0 4.0 0.00 0.00 0.00 24 1013.7
20260503193330 68 255 2.0 4.0 0.00 0.00 0.00 23 1013.9
20260503192828 67 296 1.0 4.0 0.00 0.00 0.00 27 1014.0
20260503192406 67 173 1.0 4.0 0.00 0.00 0.00 25 1013.9
20260503191838 66 177 1.0 4.0 0.00 0.00 0.00 25 1014.0
20260503191335 66 249 2.0 4.0 0.00 0.00 0.00 24 1014.1
20260503190843 66 36 1.0 6.0 0.00 0.00 0.00 27 1014.2
20260503190342 66 313 2.0 6.0 0.00 0.00 0.00 25 1014.1